Location: *
(46.3500°N, 10.9000°E)
Time: 02:14:51
(UTC+00:00)

Cosmos 1174 - Pass Details

Date: 09 April 2020
Orbit: 370 x 1148 km, 66.1° (Epoch: 04 June)

Event Time Altitude Azimuth Distance (km) Brightness Sun altitude
Rises 19:54:40 0° 326° (NW) 2,662 8.6 -19.4°
Reaches altitude 10° 19:56:39 10° 327° (NNW) 1,867 7.5 -19.7°
Maximum altitude 20:00:51 82° 56° (NE) 673 4.1 -20.2°
Enters shadow 20:02:15 47° 138° (SE) 920 4.4 -20.4°
